FW0655 Weather Reports


Display with metric or nautical units.
time (UTC)temp
F
wind
direction
speed
MPH
gust
MPH
rain 1hr
in
rain 24hr
in
rain mn
in
humidity
%
barometer
mb
20260901063030 65 150 0.0 1.0 0.00 0.39 0.00 94 1014.7
20260901061520 65 150 0.0 2.0 0.00 0.39 0.00 94 1015.0
20260901060018 65 150 1.0 2.0 0.00 0.39 0.00 94 1015.2
20260901054530 66 150 0.0 2.0 0.00 0.39 0.00 94 1015.4
20260901053019 66 150 0.0 1.0 0.00 0.39 0.00 94 1015.3
20260901051516 66 150 0.0 2.0 0.00 0.39 0.00 94 1015.6
20260901050014 66 150 0.0 2.0 0.00 0.39 0.00 94 1015.6
20260901044515 66 150 0.0 0.0 0.00 0.39 0.00 94 1015.4
20260901043012 66 150 0.0 0.0 0.00 0.39 0.00 93 1015.6
20260901041510 66 150 0.0 1.0 0.00 0.39 0.00 94 1015.5
20260901040008 66 150 1.0 2.0 0.00 0.39 0.39 94 1015.6
20260901034518 66 150 0.0 0.0 0.00 0.39 0.39 93 1015.5
20260901033012 67 150 0.0 0.0 0.00 0.39 0.39 93 1015.6
20260901031520 67 150 0.0 1.0 0.00 0.39 0.39 93 1015.6
20260901030007 67 150 1.0 2.0 0.00 0.39 0.39 93 1015.5
20260901024506 67 150 0.0 1.0 0.00 0.39 0.39 93 1015.6
20260901023007 67 150 0.0 3.0 0.01 0.39 0.39 93 1015.7
20260901021504 67 150 1.0 3.0 0.01 0.39 0.39 93 1015.8
20260901020004 67 150 2.0 5.0 0.01 0.39 0.39 93 1016.0
20260901014503 67 346 2.0 8.0 0.01 0.39 0.39 93 1016.2
20260901013003 67 221 0.0 2.0 0.00 0.38 0.38 93 1016.1
20260901011600 67 160 5.0 9.0 0.01 0.38 0.38 92 1016.3
20260901010100 68 96 1.0 3.0 0.01 0.38 0.38 92 1016.2
20260901004601 68 96 1.0 2.0 0.01 0.38 0.38 91 1015.8
20260901003059 68 96 2.0 4.0 0.01 0.38 0.38 90 1015.7
20260901001559 70 96 0.0 3.0 0.00 0.37 0.37 90 1015.5
20260901000057 70 96 0.0 2.0 0.00 0.37 0.37 90 1015.5
20260831234600 70 96 1.0 2.0 0.00 0.37 0.37 90 1015.7
20260831233055 70 96 1.0 3.0 0.01 0.37 0.37 91 1015.8
20260831231551 69 96 0.0 2.0 0.03 0.37 0.37 93 1016.0
20260831230049 68 96 0.0 3.0 0.03 0.37 0.37 93 1016.0
20260831224547 68 96 0.0 1.0 0.03 0.37 0.37 93 1016.1
20260831223049 68 96 0.0 0.0 0.03 0.36 0.36 93 1016.4
20260831221555 68 96 0.0 2.0 0.02 0.34 0.34 93 1016.6
20260831220042 68 96 0.0 1.0 0.02 0.34 0.34 93 1016.6
20260831214543 68 96 0.0 1.0 0.02 0.34 0.34 93 1016.8
20260831213044 68 96 0.0 0.0 0.01 0.33 0.33 93 1016.8
20260831211541 68 96 0.0 1.0 0.00 0.32 0.32 93 1017.0
20260831210040 67 96 0.0 1.0 0.01 0.32 0.32 93 1016.9
20260831204541 67 96 0.0 3.0 0.05 0.32 0.32 93 1016.8
20260831203100 68 96 1.0 2.0 0.06 0.32 0.32 93 1016.7
20260831201538 67 96 0.0 2.0 0.08 0.32 0.32 93 1016.8
20260831200112 67 96 0.0 3.0 0.07 0.31 0.31 93 1017.0
20260831194538 67 96 0.0 2.0 0.03 0.27 0.27 93 1017.0
20260831193035 67 96 1.0 3.0 0.01 0.25 0.25 93 1017.0
20260831191532 67 96 1.0 3.0 0.01 0.24 0.24 93 1017.5
20260831190037 67 96 1.0 3.0 0.02 0.24 0.24 93 1017.7
20260831184530 66 96 0.0 3.0 0.02 0.24 0.24 93 1017.9
20260831183029 66 96 0.0 2.0 0.03 0.24 0.24 93 1017.9
20260831181531 66 96 2.0 4.0 0.03 0.23 0.23 92 1018.2
20260831180030 65 96 2.0 4.0 0.07 0.22 0.22 92 1018.3
20260831174528 66 96 1.0 3.0 0.08 0.22 0.22 91 1018.4
20260831173025 66 96 0.0 1.0 0.08 0.21 0.21 91 1018.7
20260831171524 66 96 0.0 2.0 0.09 0.19 0.19 90 1018.8
20260831170033 67 96 0.0 0.0 0.11 0.15 0.15 89 1019.0
20260831164524 66 96 0.0 2.0 0.14 0.14 0.14 89 1019.0
20260831163023 67 96 0.0 3.0 0.13 0.13 0.13 87 1019.1
20260831161522 68 96 0.0 2.0 0.09 0.09 0.09 87 1019.2
20260831160024 68 96 0.0 3.0 0.04 0.04 0.04 86 1019.2
20260831154522 68 96 0.0 2.0 0.00 0.00 0.00 85 1018.9
20260831153020 68 96 0.0 2.0 0.00 0.00 0.00 85 1018.8
20260831151518 68 96 0.0 2.0 0.00 0.00 0.00 85 1018.9
20260831150017 67 96 2.0 4.0 0.00 0.00 0.00 86 1018.9
20260831144516 67 96 1.0 3.0 0.00 0.00 0.00 86 1018.8
20260831143017 67 96 0.0 3.0 0.00 0.00 0.00 87 1018.7
20260831141513 66 96 1.0 3.0 0.00 0.00 0.00 87 1018.8
20260831140029 66 96 1.0 4.0 0.00 0.00 0.00 88 1019.0
20260831134514 65 96 2.0 4.0 0.00 0.00 0.00 89 1018.7
20260831133012 65 96 0.0 3.0 0.00 0.00 0.00 90 1019.0
20260831131511 64 96 2.0 3.0 0.00 0.00 0.00 90 1019.1
20260831130010 64 96 1.0 3.0 0.00 0.00 0.00 90 1019.1
20260831124510 63 96 1.0 3.0 0.00 0.00 0.00 91 1019.1
20260831123008 63 96 2.0 4.0 0.00 0.00 0.00 91 1019.0
20260831121509 63 96 0.0 4.0 0.00 0.00 0.00 92 1019.1
20260831120014 62 96 1.0 4.0 0.00 0.00 0.00 92 1019.4
20260831114507 62 96 0.0 2.0 0.00 0.00 0.00 92 1019.4
20260831113007 62 96 0.0 0.0 0.00 0.00 0.00 92 1019.2
20260831111505 62 96 0.0 0.0 0.00 0.00 0.00 92 1019.2
20260831110006 61 96 0.0 2.0 0.00 0.00 0.00 92 1019.0
20260831104509 61 96 0.0 2.0 0.00 0.00 0.00 91 1018.9
20260831103004 61 96 0.0 4.0 0.00 0.00 0.00 91 1018.6
20260831101505 62 96 2.0 4.0 0.00 0.00 0.00 91 1018.6
20260831100109 62 96 1.0 2.0 0.00 0.00 0.00 91 1018.6
20260831094559 62 96 0.0 2.0 0.00 0.00 0.00 90 1018.6
20260831093059 62 96 0.0 2.0 0.00 0.00 0.00 90 1018.9
20260831091557 62 96 0.0 0.0 0.00 0.00 0.00 90 1018.8
20260831084600 63 96 0.0 1.0 0.00 0.00 0.00 89 1018.5
20260831083056 63 96 1.0 3.0 0.00 0.00 0.00 88 1018.6
20260831081552 64 96 0.0 0.0 0.00 0.00 0.00 88 1018.5
20260831080050 64 96 0.0 2.0 0.00 0.00 0.00 88 1018.2
20260831074549 65 96 1.0 2.0 0.00 0.00 0.00 88 1018.4
20260831073047 65 96 0.0 2.0 0.00 0.00 0.00 87 1018.5
20260831071546 65 96 0.0 2.0 0.00 0.00 0.00 87 1018.5
20260831070054 65 96 0.0 1.0 0.00 0.00 0.00 87 1018.5
20260831064546 65 96 1.0 2.0 0.00 0.00 0.00 87 1018.4